Orangeburg, SC

1:53 PM EST on January 17, 2018 (GMT -0500)
Orangeburg Municipal

Weather History for KOGB - January, 2012

Change the Weather History Date:

Friday, January 13, 2012

  Actual Average Record
Temperature  
Mean Temperature 41 °F 46 °F  
Max Temperature 52 °F 56 °F 77 °F (2013)
Min Temperature 30 °F 35 °F 12 °F (1981)
Degree Days  
Heating Degree Days 24 19  
Month to date heating degree days 193 259  
Since 1 July heating degree days 973 1163  
Cooling Degree Days 0 0  
Month to date cooling degree days 0 0  
Year to date cooling degree days 0 0  
Moisture  
Dew Point 18 °F    
Average Humidity 44    
Maximum Humidity 63    
Minimum Humidity 28    
Precipitation  
Precipitation 0.00 in 0.10 in 2.21 in (1975)
Month to date precipitation 0.65 1.59  
Year to date precipitation 0.65 1.59  
Sea Level Pressure  
Sea Level Pressure 30.03 in    
Wind  
Wind Speed 14 mph (West)    
Max Wind Speed 28 mph    
Max Gust Speed 38 mph    
Visibility 10 miles    
Events      
T = Trace of Precipitation, MM = Missing Value Source: NWS Daily Summary

Daily Weather History Graph

Daily Weather History Graph

Search for Another Location

Airport or City:

Trip Planner

Search our weather history database for the weather conditions in past years. The results will help you decide how hot, cold, wet, or windy it might be!

Date:

Astronomy

Jan. 13, 2012 Rise Set
Actual Time 7:27 AM EST 5:36 PM EST
Civil Twilight 7:00 AM EST 6:03 PM EST
Nautical Twilight 6:30 AM EST 6:33 PM EST
Astronomical Twilight 6:00 AM EST 7:03 PM EST
Moon 10:29 PM EST (1/13) 9:57 AM EST (1/13)
Length of Visible Light 11h 02m
Length of Day
10h 08m
Waning Gibbous, 79% of the Moon is Illuminated
Jan 13
Waning Gibbous
Jan 16
Last Quarter
Jan 23
New
Jan 30
First Quarter
Feb 7
Full

Hourly Weather History & Observations

Time (EST) Temp. Windchill Dew Point Humidity Pressure Visibility Wind Dir Wind Speed Gust Speed Precip Events Conditions
12:53 AM 46.0 °F 38.5 °F 28.0 °F 50% 29.83 in 10.0 mi West 19.6 mph 32.2 mph N/A   Clear
1:53 AM 39.9 °F 30.2 °F 21.0 °F 47% 29.88 in 10.0 mi WNW 20.7 mph 27.6 mph N/A   Clear
2:53 AM 37.0 °F 26.7 °F 16.0 °F 42% 29.93 in 10.0 mi West 19.6 mph 32.2 mph 0.00 in   Clear
3:53 AM 36.0 °F 26.3 °F 16.0 °F 44% 29.94 in 10.0 mi West 16.1 mph 24.2 mph N/A   Clear
4:53 AM 34.0 °F 24.2 °F 17.1 °F 50% 29.97 in 10.0 mi West 15.0 mph 21.9 mph N/A   Clear
5:53 AM 33.1 °F 24.4 °F 17.1 °F 52% 29.99 in 10.0 mi West 11.5 mph - N/A   Clear
6:53 AM 32.0 °F 23.0 °F 19.0 °F 59% 30.01 in 10.0 mi West 11.5 mph - N/A   Clear
7:53 AM 30.9 °F 23.5 °F 19.9 °F 64% 30.03 in 10.0 mi WSW 8.1 mph - N/A   Unknown
8:53 AM 34.0 °F 24.6 °F 19.9 °F 56% 30.06 in 10.0 mi West 13.8 mph 21.9 mph N/A   Clear
9:53 AM 37.0 °F 27.0 °F 19.0 °F 48% 30.08 in 10.0 mi West 18.4 mph 25.3 mph N/A   Clear
10:53 AM 39.0 °F 30.6 °F 18.0 °F 43% 30.07 in 10.0 mi West 15.0 mph 24.2 mph N/A   Clear
11:53 AM 43.0 °F 35.7 °F 19.0 °F 38% 30.04 in 10.0 mi WNW 15.0 mph - N/A   Clear
12:53 PM 45.0 °F 37.1 °F 17.1 °F 33% 30.01 in 10.0 mi West 19.6 mph 27.6 mph N/A   Clear
1:53 PM 46.0 °F 39.3 °F 16.0 °F 30% 30.01 in 10.0 mi West 16.1 mph 23.0 mph N/A   Clear
2:53 PM 46.0 °F 39.6 °F 16.0 °F 30% 30.01 in 10.0 mi WSW 15.0 mph - N/A   Clear
3:53 PM 46.9 °F - 17.1 °F 30% 30.03 in 10.0 mi West 12.7 mph - N/A   Clear
4:53 PM 44.1 °F 37.1 °F 17.1 °F 34% 30.06 in 10.0 mi West 15.0 mph 20.7 mph N/A   Clear
5:53 PM 41.0 °F 34.7 °F 19.0 °F 41% 30.09 in 10.0 mi West 10.4 mph - N/A   Clear
6:53 PM 41.0 °F 35.2 °F 18.0 °F 40% 30.10 in 10.0 mi West 9.2 mph - N/A   Clear
7:53 PM 39.9 °F 35.1 °F 19.0 °F 43% 30.11 in 10.0 mi West 6.9 mph - N/A   Clear
8:53 PM 39.9 °F 33.4 °F 19.0 °F 43% 30.13 in 10.0 mi West 10.4 mph - N/A   Clear
9:53 PM 39.9 °F 32.5 °F 18.0 °F 41% 30.14 in 10.0 mi West 12.7 mph - N/A   Clear
10:53 PM 39.0 °F 33.4 °F 18.0 °F 43% 30.14 in 10.0 mi West 8.1 mph - N/A   Clear
11:53 PM 37.9 °F 30.5 °F 18.0 °F 45% 30.15 in 10.0 mi West 11.5 mph - N/A   Clear